Regional Weather Roundup
Issued by NWS Goodland, KS

Home | Current Version | Previous Version | Text Only | Print | Product List | Glossary On
Versions: 1 2 3 4 5 6 7 8 9 10 11 12 13 14 15 16 17 18 19 20 21 22 23 24 25 26 27 28 29 30 31 32 33 34 35 36 37 38 39 40 41 42 43 44 45 46 47 48 49 50
000
ASUS43 KGLD 030308
RWRGLD

GOODLAND FORECAST AREA HOURLY WEATHER ROUNDUP
NATIONAL WEATHER SERVICE GOODLAND KS
800 PM MST MON MAR 02 2015

...OFFICIAL OBSERVATIONS...

CITY           SKY/WX    TMP DP  RH WIND       PRES   REMARKS
GOODLAND KS    CLOUDY    31  30  96 S26G37    29.65F WCI  17
HILL CITY KS   CLOUDY    30  22  72 S14       29.83F WCI  19
IMPERIAL NEB     N/A     30  27  88 S16G26    29.69F FOG     WCI  19
MCCOOK NEB     CLOUDY    32  23  69 SE14      29.77F
AKRON CO       CLOUDY    29  28  96 SE12      29.55F WCI  19
BURLINGTON CO  CLOUDY    32  29  88 S23G30    29.63F WCI  19
LIMON CO       MOCLDY    27  24  89 E12       29.62F WCI  17
$$

...UNOFFICIAL OBSERVATIONS...

CITY           SKY/WX    TMP DP  RH WIND       PRES   REMARKS
COLBY KS       CLOUDY    32  32 100 S18G24    29.72F FOG
GOVE KS          N/A     31  32 100 MISG        N/A
LENORA KS        N/A     29  32 100 S17         N/A  WCI  17
SHARON SPRINGS   N/A     32  30  94 S22G29      N/A  WCI  19
KIT CARSON CO    N/A     31  29  91 MISG        N/A
YUMA CO          N/A     31  28  87 E8          N/A
$$



USA.gov is the U.S. government's official web portal to all federal, state and local government web resources and services.